Time,TemperatureF,DewpointF,PressureIn,WindDirection,WindDirectionDegrees,WindSpeedMPH,WindSpeedGustMPH,Humidity,HourlyPrecipIn,Conditions,Clouds,dailyrainin,SoftwareType,DateUTC
2013-07-22 00:00:00,73.0,70.9,30.00,West,270,0.0,0.0,93,0.00,RA,,0.00,WeatherDisplay:10.37,2013-07-22 04:00:00,
2013-07-22 00:05:00,72.9,70.7,30.00,WNW,291,0.0,0.0,93,0.00,RA,,0.00,WeatherDisplay:10.37,2013-07-22 04:05:00,
2013-07-22 00:10:00,72.9,70.7,30.00,WNW,283,0.0,0.0,93,0.00,CLR,,0.00,WeatherDisplay:10.37,2013-07-22 04:10:00,
2013-07-22 00:15:00,72.9,70.7,30.00,WNW,298,0.0,0.0,93,0.00,CLR,,0.00,WeatherDisplay:10.37,2013-07-22 04:15:00,
2013-07-22 00:20:00,72.9,70.7,30.00,NNW,332,0.0,0.0,93,0.00,CLR,,0.00,WeatherDisplay:10.37,2013-07-22 04:20:00,
2013-07-22 00:30:00,73.0,70.9,30.00,West,275,0.0,0.0,93,0.00,CLR,,0.00,WeatherDisplay:10.37,2013-07-22 04:30:00,
2013-07-22 00:35:00,73.0,70.9,30.00,West,277,0.0,0.0,93,0.00,CLR,,0.00,WeatherDisplay:10.37,2013-07-22 04:35:00,
2013-07-22 00:40:00,73.0,70.9,30.00,WSW,251,0.0,0.0,93,0.00,CLR,,0.00,WeatherDisplay:10.37,2013-07-22 04:40:00,
2013-07-22 00:45:00,73.2,71.1,29.99,SSW,196,0.0,0.0,93,0.00,CLR,,0.00,WeatherDisplay:10.37,2013-07-22 04:45:00,
2013-07-22 00:50:00,73.2,71.1,29.99,South,173,0.0,0.0,93,0.00,CLR,,0.00,WeatherDisplay:10.37,2013-07-22 04:50:00,
2013-07-22 00:55:00,73.2,71.1,29.99,South,187,0.0,0.0,93,0.00,CLR,,0.00,WeatherDisplay:10.37,2013-07-22 04:55:00,
2013-07-22 01:00:00,73.2,71.1,29.99,SSW,194,0.0,0.0,93,0.00,CLR,,0.00,WeatherDisplay:10.37,2013-07-22 05:00:00,
2013-07-22 01:05:00,73.2,71.1,29.99,South,182,0.0,0.0,93,0.00,CLR,,0.00,WeatherDisplay:10.37,2013-07-22 05:05:00,
2013-07-22 01:10:00,73.0,71.2,29.98,South,191,0.0,0.0,94,0.00,CLR,,0.00,WeatherDisplay:10.37,2013-07-22 05:10:00,
2013-07-22 01:15:00,73.0,71.2,29.98,WSW,240,0.0,0.0,94,0.00,CLR,,0.00,WeatherDisplay:10.37,2013-07-22 05:15:00,
2013-07-22 01:20:00,73.0,71.2,29.98,SW,228,2.0,6.0,94,0.00,CLR,,0.00,WeatherDisplay:10.37,2013-07-22 05:20:00,
2013-07-22 01:25:00,72.9,71.0,29.98,SSW,201,0.0,6.0,94,0.00,CLR,,0.00,WeatherDisplay:10.37,2013-07-22 05:25:00,
2013-07-22 01:30:00,72.9,71.0,29.98,South,187,1.0,6.0,94,0.00,CLR,,0.00,WeatherDisplay:10.37,2013-07-22 05:30:00,
2013-07-22 01:35:00,72.9,71.0,29.99,SW,220,0.0,2.0,94,0.00,CLR,,0.00,WeatherDisplay:10.37,2013-07-22 05:35:00,
2013-07-22 01:40:00,72.9,71.0,29.99,WSW,256,0.0,1.0,94,0.00,CLR,,0.00,WeatherDisplay:10.37,2013-07-22 05:40:00,
2013-07-22 01:50:00,72.7,70.9,29.98,NW,308,0.0,0.0,94,0.00,CLR,,0.00,WeatherDisplay:10.37,2013-07-22 05:50:00,
2013-07-22 01:55:00,72.7,70.9,29.98,SW,231,0.0,0.0,94,0.00,CLR,,0.00,WeatherDisplay:10.37,2013-07-22 05:55:00,
2013-07-22 02:05:00,72.5,70.7,29.98,SW,236,0.0,0.0,94,0.00,CLR,,0.00,WeatherDisplay:10.37,2013-07-22 06:05:00,
2013-07-22 02:10:00,72.5,70.7,29.98,WSW,249,0.0,0.0,94,0.00,CLR,,0.00,WeatherDisplay:10.37,2013-07-22 06:10:00,
2013-07-22 02:20:00,72.5,70.7,29.98,SSW,192,0.0,0.0,94,0.00,CLR,,0.00,WeatherDisplay:10.37,2013-07-22 06:20:00,
2013-07-22 02:25:00,72.1,70.3,29.97,SW,220,0.0,0.0,94,0.00,CLR,,0.00,WeatherDisplay:10.37,2013-07-22 06:25:00,
2013-07-22 02:30:00,72.1,70.3,29.97,SW,225,0.0,0.0,94,0.00,CLR,,0.00,WeatherDisplay:10.37,2013-07-22 06:30:00,
2013-07-22 02:35:00,72.1,70.3,29.98,SW,225,0.0,0.0,94,0.00,CLR,,0.00,WeatherDisplay:10.37,2013-07-22 06:35:00,
2013-07-22 02:40:00,72.1,70.3,29.98,SW,225,0.0,0.0,94,0.00,CLR,,0.00,WeatherDisplay:10.37,2013-07-22 06:40:00,
2013-07-22 02:45:00,72.1,70.3,29.98,SW,225,0.0,0.0,94,0.00,CLR,,0.00,WeatherDisplay:10.37,2013-07-22 06:45:00,
2013-07-22 02:50:00,72.1,70.3,29.98,SW,217,1.0,6.0,94,0.00,CLR,,0.00,WeatherDisplay:10.37,2013-07-22 06:50:00,
2013-07-22 03:00:00,72.1,70.3,29.98,South,190,2.0,6.0,94,0.00,CLR,,0.00,WeatherDisplay:10.37,2013-07-22 07:00:00,
2013-07-22 03:05:00,72.1,70.3,29.97,South,176,2.0,8.0,94,0.00,CLR,,0.00,WeatherDisplay:10.37,2013-07-22 07:05:00,
2013-07-22 03:10:00,72.1,70.3,29.96,South,191,1.0,6.0,94,0.00,CLR,,0.00,WeatherDisplay:10.37,2013-07-22 07:10:00,
2013-07-22 03:20:00,72.0,70.4,29.97,SSE,162,1.0,6.0,95,0.00,CLR,,0.00,WeatherDisplay:10.37,2013-07-22 07:20:00,
2013-07-22 03:25:00,72.0,70.4,29.97,South,170,0.0,5.0,95,0.00,CLR,,0.00,WeatherDisplay:10.37,2013-07-22 07:25:00,
2013-07-22 03:30:00,72.0,70.4,29.97,SSW,196,1.0,5.0,95,0.00,CLR,,0.00,WeatherDisplay:10.37,2013-07-22 07:30:00,
2013-07-22 03:35:00,72.0,70.4,29.96,South,175,2.0,10.0,95,0.00,CLR,,0.00,WeatherDisplay:10.37,2013-07-22 07:35:00,
2013-07-22 03:40:00,72.0,70.4,29.96,SSE,165,2.0,6.0,95,0.00,CLR,,0.00,WeatherDisplay:10.37,2013-07-22 07:40:00,
2013-07-22 03:45:00,71.8,70.3,29.96,SSE,168,2.0,6.0,95,0.00,CLR,,0.00,WeatherDisplay:10.37,2013-07-22 07:45:00,
2013-07-22 03:50:00,71.8,70.3,29.96,South,188,0.0,6.0,95,0.00,CLR,,0.00,WeatherDisplay:10.37,2013-07-22 07:50:00,
2013-07-22 03:55:00,71.8,70.3,29.95,SW,220,1.0,8.0,95,0.00,CLR,,0.00,WeatherDisplay:10.37,2013-07-22 07:55:00,
2013-07-22 04:00:00,71.7,70.1,29.96,SW,221,0.0,5.0,95,0.00,CLR,,0.00,WeatherDisplay:10.37,2013-07-22 08:00:00,
2013-07-22 04:05:00,71.6,70.1,29.96,South,190,1.0,10.0,95,0.00,CLR,,0.00,WeatherDisplay:10.37,2013-07-22 08:05:00,
2013-07-22 04:10:00,71.6,70.1,29.96,South,180,1.0,3.0,95,0.00,CLR,,0.00,WeatherDisplay:10.37,2013-07-22 08:10:00,
2013-07-22 04:15:00,71.6,70.1,29.96,SSE,165,3.0,8.0,95,0.00,CLR,,0.00,WeatherDisplay:10.37,2013-07-22 08:15:00,
2013-07-22 04:20:00,71.6,70.1,29.96,South,169,1.0,7.0,95,0.00,CLR,,0.00,WeatherDisplay:10.37,2013-07-22 08:20:00,
2013-07-22 04:30:00,71.6,70.1,29.96,SSW,202,1.0,7.0,95,0.00,CLR,,0.00,WeatherDisplay:10.37,2013-07-22 08:30:00,
2013-07-22 04:35:00,71.6,70.1,29.96,SW,226,0.0,0.0,95,0.00,CLR,,0.00,WeatherDisplay:10.37,2013-07-22 08:35:00,
2013-07-22 04:40:00,71.6,70.1,29.96,WSW,247,0.0,3.0,95,0.00,CLR,,0.00,WeatherDisplay:10.37,2013-07-22 08:40:00,
2013-07-22 04:45:00,71.4,70.2,29.96,WSW,249,0.0,6.0,96,0.00,CLR,,0.00,WeatherDisplay:10.37,2013-07-22 08:45:00,
2013-07-22 04:50:00,71.4,70.2,29.96,WSW,241,0.0,1.0,96,0.00,CLR,,0.00,WeatherDisplay:10.37,2013-07-22 08:50:00,
2013-07-22 05:00:00,71.4,70.2,29.97,WSW,249,0.0,1.0,96,0.00,CLR,,0.00,WeatherDisplay:10.37,2013-07-22 09:00:00,
2013-07-22 05:05:00,71.4,70.2,29.97,SW,236,0.0,3.0,96,0.00,CLR,,0.00,WeatherDisplay:10.37,2013-07-22 09:05:00,
2013-07-22 05:10:00,71.4,70.2,29.97,SW,232,0.0,0.0,96,0.00,CLR,,0.00,WeatherDisplay:10.37,2013-07-22 09:10:00,
2013-07-22 05:15:00,71.2,70.0,29.97,SW,231,0.0,0.0,96,0.00,CLR,,0.00,WeatherDisplay:10.37,2013-07-22 09:15:00,
2013-07-22 05:20:00,71.2,70.0,29.97,SW,232,0.0,0.0,96,0.00,CLR,,0.00,WeatherDisplay:10.37,2013-07-22 09:20:00,
2013-07-22 05:25:00,71.2,70.0,29.97,SW,222,0.0,3.0,96,0.00,CLR,,0.00,WeatherDisplay:10.37,2013-07-22 09:25:00,
2013-07-22 05:30:00,71.1,69.9,29.97,SSW,207,0.0,5.0,96,0.00,CLR,,0.00,WeatherDisplay:10.37,2013-07-22 09:30:00,
2013-07-22 05:40:00,71.1,69.9,29.97,SSW,198,0.0,8.0,96,0.00,CLR,,0.00,WeatherDisplay:10.37,2013-07-22 09:40:00,
2013-07-22 05:45:00,71.1,69.9,29.97,SW,222,2.0,7.0,96,0.00,CLR,,0.00,WeatherDisplay:10.37,2013-07-22 09:45:00,
2013-07-22 05:50:00,71.1,69.9,29.97,SSW,196,3.0,8.0,96,0.00,CLR,,0.00,WeatherDisplay:10.37,2013-07-22 09:50:00,
2013-07-22 05:55:00,70.9,69.7,29.97,South,187,0.0,7.0,96,0.00,CLR,,0.00,WeatherDisplay:10.37,2013-07-22 09:55:00,
2013-07-22 06:00:00,70.9,69.7,29.96,South,188,3.0,6.0,96,0.00,CLR,,0.00,WeatherDisplay:10.37,2013-07-22 10:00:00,
2013-07-22 06:05:00,70.9,69.7,29.97,South,185,2.0,6.0,96,0.00,CLR,,0.00,WeatherDisplay:10.37,2013-07-22 10:05:00,
2013-07-22 06:10:00,70.9,69.7,29.97,South,185,2.0,6.0,96,0.00,CLR,,0.00,WeatherDisplay:10.37,2013-07-22 10:10:00,
2013-07-22 06:20:00,70.7,69.5,29.97,South,186,0.0,5.0,96,0.00,CLR,,0.00,WeatherDisplay:10.37,2013-07-22 10:20:00,
2013-07-22 06:25:00,70.7,69.5,29.98,SSW,198,1.0,5.0,96,0.00,CLR,,0.00,WeatherDisplay:10.37,2013-07-22 10:25:00,
2013-07-22 06:30:00,70.7,69.5,29.98,SSW,202,0.0,5.0,96,0.00,CLR,,0.00,WeatherDisplay:10.37,2013-07-22 10:30:00,
2013-07-22 06:40:00,70.5,69.0,29.98,SSW,212,0.0,6.0,95,0.00,CLR,,0.00,WeatherDisplay:10.37,2013-07-22 10:40:00,
2013-07-22 06:45:00,70.5,69.0,29.98,SSW,195,3.0,7.0,95,0.00,CLR,,0.00,WeatherDisplay:10.37,2013-07-22 10:45:00,
2013-07-22 06:50:00,70.4,68.9,29.98,SSW,204,0.0,5.0,95,0.00,CLR,,0.00,WeatherDisplay:10.37,2013-07-22 10:50:00,
2013-07-22 07:00:00,70.3,68.8,29.99,South,171,5.0,8.0,95,0.00,CLR,,0.00,WeatherDisplay:10.37,2013-07-22 11:00:00,
2013-07-22 07:05:00,70.3,68.8,29.99,South,180,2.0,8.0,95,0.00,CLR,,0.00,WeatherDisplay:10.37,2013-07-22 11:05:00,
2013-07-22 07:10:00,70.3,68.8,29.98,SSW,199,0.0,13.0,95,0.00,CLR,,0.00,WeatherDisplay:10.37,2013-07-22 11:10:00,
2013-07-22 07:20:00,70.3,68.8,29.98,SSW,198,1.0,12.0,95,0.00,CLR,,0.00,WeatherDisplay:10.37,2013-07-22 11:20:00,
2013-07-22 07:25:00,70.3,68.8,29.98,SSW,196,6.0,10.0,95,0.00,CLR,,0.00,WeatherDisplay:10.37,2013-07-22 11:25:00,
2013-07-22 07:30:00,70.5,69.0,29.98,South,181,2.0,10.0,95,0.00,CLR,,0.00,WeatherDisplay:10.37,2013-07-22 11:30:00,
2013-07-22 07:35:00,70.5,69.0,29.98,South,186,2.0,10.0,95,0.00,CLR,,0.00,WeatherDisplay:10.37,2013-07-22 11:35:00,
2013-07-22 07:40:00,70.7,69.2,29.98,SSW,199,3.0,10.0,95,0.00,CLR,,0.00,WeatherDisplay:10.37,2013-07-22 11:40:00,
2013-07-22 07:45:00,70.7,69.2,29.98,South,182,6.0,10.0,95,0.00,CLR,,0.00,WeatherDisplay:10.37,2013-07-22 11:45:00,
2013-07-22 07:50:00,70.7,69.2,29.99,South,189,2.0,8.0,95,0.00,CLR,,0.00,WeatherDisplay:10.37,2013-07-22 11:50:00,
2013-07-22 07:55:00,70.9,69.4,29.99,SSW,199,3.0,8.0,95,0.00,CLR,,0.00,WeatherDisplay:10.37,2013-07-22 11:55:00,
2013-07-22 08:00:00,71.0,69.5,29.99,SSW,192,5.0,10.0,95,0.00,CLR,,0.00,WeatherDisplay:10.37,2013-07-22 12:00:00,
2013-07-22 08:05:00,71.1,69.6,29.99,SSW,208,2.0,7.0,95,0.00,CLR,,0.00,WeatherDisplay:10.37,2013-07-22 12:05:00,
2013-07-22 08:10:00,71.2,69.7,29.99,SW,221,0.0,7.0,95,0.00,CLR,,0.00,WeatherDisplay:10.37,2013-07-22 12:10:00,
2013-07-22 08:15:00,71.4,69.9,29.99,SSW,212,5.0,10.0,95,0.00,CLR,,0.00,WeatherDisplay:10.37,2013-07-22 12:15:00,
2013-07-22 08:20:00,71.6,69.5,29.99,SSW,192,1.0,7.0,93,0.00,CLR,,0.00,WeatherDisplay:10.37,2013-07-22 12:20:00,
2013-07-22 08:25:00,71.6,69.5,29.99,SSW,199,1.0,8.0,93,0.00,CLR,,0.00,WeatherDisplay:10.37,2013-07-22 12:25:00,
2013-07-22 08:30:00,71.8,69.3,29.99,South,187,2.0,8.0,92,0.00,CLR,,0.00,WeatherDisplay:10.37,2013-07-22 12:30:00,
2013-07-22 08:35:00,72.0,69.5,29.99,SSW,200,5.0,12.0,92,0.00,CLR,,0.00,WeatherDisplay:10.37,2013-07-22 12:35:00,
2013-07-22 08:40:00,72.1,69.7,29.99,SSW,200,2.0,10.0,92,0.00,CLR,,0.00,WeatherDisplay:10.37,2013-07-22 12:40:00,
2013-07-22 08:45:00,72.1,69.4,29.99,South,188,6.0,12.0,91,0.00,CLR,,0.00,WeatherDisplay:10.37,2013-07-22 12:45:00,
2013-07-22 08:50:00,72.1,69.4,29.99,South,179,1.0,8.0,91,0.00,CLR,,0.00,WeatherDisplay:10.37,2013-07-22 12:50:00,
2013-07-22 08:55:00,72.3,69.5,30.00,SSW,205,2.0,7.0,91,0.00,CLR,,0.00,WeatherDisplay:10.37,2013-07-22 12:55:00,
2013-07-22 09:00:00,72.5,69.4,30.00,SW,228,0.0,7.0,90,0.00,CLR,,0.00,WeatherDisplay:10.37,2013-07-22 13:00:00,
2013-07-22 09:10:00,72.5,69.1,30.00,South,189,3.0,12.0,89,0.00,CLR,,0.00,WeatherDisplay:10.37,2013-07-22 13:10:00,
2013-07-22 09:15:00,72.6,69.1,30.00,South,188,2.0,7.0,89,0.00,CLR,,0.00,WeatherDisplay:10.37,2013-07-22 13:15:00,
2013-07-22 09:20:00,72.7,68.9,30.00,SW,217,2.0,8.0,88,0.00,CLR,,0.00,WeatherDisplay:10.37,2013-07-22 13:20:00,
2013-07-22 09:25:00,72.8,69.0,30.00,SSW,195,3.0,10.0,88,0.00,CLR,,0.00,WeatherDisplay:10.37,2013-07-22 13:25:00,
2013-07-22 09:30:00,72.9,69.1,30.00,South,182,1.0,6.0,88,0.00,CLR,,0.00,WeatherDisplay:10.37,2013-07-22 13:30:00,
2013-07-22 09:40:00,73.0,69.3,30.00,SSW,212,1.0,7.0,88,0.00,CLR,,0.00,WeatherDisplay:10.37,2013-07-22 13:40:00,
2013-07-22 09:45:00,73.2,69.5,30.00,SSW,209,1.0,13.0,88,0.00,CLR,,0.00,WeatherDisplay:10.37,2013-07-22 13:45:00,
2013-07-22 09:50:00,71.0,69.2,30.12,SSW,193,2.0,8.0,94,0.00,CLR,,0.00,WeatherDisplay:10.37,2013-07-22 13:50:00,
2013-07-22 09:55:00,73.4,69.6,30.00,South,183,2.0,8.0,88,0.00,CLR,,0.00,WeatherDisplay:10.37,2013-07-22 13:55:00,
2013-07-22 10:00:00,73.6,69.9,29.99,SSW,213,2.0,7.0,88,0.00,CLR,,0.00,WeatherDisplay:10.37,2013-07-22 14:00:00,
2013-07-22 10:10:00,73.9,70.2,29.99,South,171,5.0,10.0,88,0.00,CLR,,0.00,WeatherDisplay:10.37,2013-07-22 14:10:00,
2013-07-22 10:15:00,74.0,69.8,29.99,South,179,0.0,10.0,87,0.00,CLR,,0.00,WeatherDisplay:10.37,2013-07-22 14:15:00,
2013-07-22 10:20:00,74.3,70.2,29.99,SSW,207,2.0,8.0,87,0.00,CLR,,0.00,WeatherDisplay:10.37,2013-07-22 14:20:00,
2013-07-22 10:25:00,74.5,70.4,29.99,SSW,212,1.0,5.0,87,0.00,CLR,,0.00,WeatherDisplay:10.37,2013-07-22 14:25:00,
2013-07-22 10:30:00,74.5,70.4,29.99,SSW,207,2.0,7.0,87,0.00,CLR,,0.00,WeatherDisplay:10.37,2013-07-22 14:30:00,
2013-07-22 10:35:00,74.7,70.5,29.99,SSW,209,6.0,14.0,87,0.00,CLR,,0.00,WeatherDisplay:10.37,2013-07-22 14:35:00,
2013-07-22 10:40:00,74.5,70.0,29.99,South,178,2.0,14.0,86,0.00,CLR,,0.00,WeatherDisplay:10.37,2013-07-22 14:40:00,
2013-07-22 10:45:00,74.5,70.0,30.00,South,169,3.0,8.0,86,0.00,CLR,,0.00,WeatherDisplay:10.37,2013-07-22 14:45:00,
2013-07-22 10:50:00,74.5,70.0,29.99,South,177,5.0,8.0,86,0.00,CLR,,0.00,WeatherDisplay:10.37,2013-07-22 14:50:00,
2013-07-22 10:55:00,74.5,70.0,30.00,South,183,3.0,7.0,86,0.00,CLR,,0.00,WeatherDisplay:10.37,2013-07-22 14:55:00,
2013-07-22 11:00:00,74.5,70.4,29.99,South,184,2.0,7.0,87,0.00,CLR,,0.00,WeatherDisplay:10.37,2013-07-22 15:00:00,
2013-07-22 11:05:00,74.8,70.7,29.99,South,190,5.0,10.0,87,0.00,CLR,,0.00,WeatherDisplay:10.37,2013-07-22 15:05:00,
2013-07-22 11:10:00,71.8,67.4,30.12,SSW,209,1.0,8.0,86,0.00,CLR,,0.00,WeatherDisplay:10.37,2013-07-22 15:10:00,
2013-07-22 11:15:00,75.2,70.4,29.99,SSW,210,3.0,10.0,85,0.00,CLR,,0.00,WeatherDisplay:10.37,2013-07-22 15:15:00,
2013-07-22 11:20:00,75.6,70.7,29.99,SSW,204,2.0,7.0,85,0.00,CLR,,0.00,WeatherDisplay:10.37,2013-07-22 15:20:00,
2013-07-22 11:25:00,75.7,70.9,29.99,SSW,201,3.0,8.0,85,0.00,CLR,,0.00,WeatherDisplay:10.37,2013-07-22 15:25:00,
2013-07-22 11:30:00,75.7,70.9,30.00,South,173,5.0,8.0,85,0.00,CLR,,0.00,WeatherDisplay:10.37,2013-07-22 15:30:00,
2013-07-22 11:35:00,75.6,70.8,29.99,South,185,1.0,7.0,85,0.00,CLR,,0.00,WeatherDisplay:10.37,2013-07-22 15:35:00,
2013-07-22 11:40:00,75.6,70.7,29.99,SSW,207,2.0,10.0,85,0.00,CLR,,0.00,WeatherDisplay:10.37,2013-07-22 15:40:00,
2013-07-22 11:50:00,75.6,70.7,29.99,SSW,194,1.0,10.0,85,0.00,CLR,,0.00,WeatherDisplay:10.37,2013-07-22 15:50:00,
2013-07-22 11:55:00,75.6,70.7,29.99,South,191,8.0,13.0,85,0.00,CLR,,0.00,WeatherDisplay:10.37,2013-07-22 15:55:00,
2013-07-22 12:00:00,75.8,71.0,29.99,SW,218,3.0,8.0,85,0.00,CLR,,0.00,WeatherDisplay:10.37,2013-07-22 16:00:00,
2013-07-22 12:05:00,76.5,71.6,29.99,South,191,2.0,12.0,85,0.00,CLR,,0.00,WeatherDisplay:10.37,2013-07-22 16:05:00,
2013-07-22 12:10:00,76.8,71.6,29.99,South,190,3.0,7.0,84,0.00,CLR,,0.00,WeatherDisplay:10.37,2013-07-22 16:10:00,
2013-07-22 12:15:00,77.0,71.4,29.98,South,191,6.0,13.0,83,0.00,CLR,,0.00,WeatherDisplay:10.37,2013-07-22 16:15:00,
2013-07-22 12:20:00,77.2,71.3,29.98,South,178,0.0,12.0,82,0.00,CLR,,0.00,WeatherDisplay:10.37,2013-07-22 16:20:00,
2013-07-22 12:30:00,77.7,71.1,29.98,SSW,206,2.0,13.0,80,0.00,CLR,,0.00,WeatherDisplay:10.37,2013-07-22 16:30:00,
2013-07-22 12:35:00,77.7,70.7,29.98,SSW,198,7.0,14.0,79,0.00,CLR,,0.00,WeatherDisplay:10.37,2013-07-22 16:35:00,
2013-07-22 12:40:00,78.3,71.6,29.98,SSW,199,5.0,13.0,80,0.00,CLR,,0.00,WeatherDisplay:10.37,2013-07-22 16:40:00,
2013-07-22 12:45:00,78.8,71.7,29.98,SW,223,3.0,8.0,79,0.00,CLR,,0.00,WeatherDisplay:10.37,2013-07-22 16:45:00,
2013-07-22 12:50:00,79.2,71.7,29.97,SSW,207,7.0,12.0,78,0.00,CLR,,0.00,WeatherDisplay:10.37,2013-07-22 16:50:00,
2013-07-22 12:55:00,79.5,71.3,29.97,SSW,198,8.0,17.0,76,0.00,CLR,,0.00,WeatherDisplay:10.37,2013-07-22 16:55:00,
2013-07-22 13:00:00,79.7,71.5,29.97,South,188,6.0,12.0,76,0.00,CLR,,0.00,WeatherDisplay:10.37,2013-07-22 17:00:00,
2013-07-22 13:05:00,79.9,71.6,29.97,SSW,205,2.0,12.0,76,0.00,CLR,,0.00,WeatherDisplay:10.37,2013-07-22 17:05:00,
2013-07-22 13:10:00,79.7,71.5,29.96,South,189,3.0,10.0,76,0.00,CLR,,0.00,WeatherDisplay:10.37,2013-07-22 17:10:00,
2013-07-22 13:15:00,80.1,71.8,29.96,South,185,6.0,10.0,76,0.00,CLR,,0.00,WeatherDisplay:10.37,2013-07-22 17:15:00,
2013-07-22 13:20:00,80.8,72.2,29.96,SSW,198,6.0,12.0,75,0.00,CLR,,0.00,WeatherDisplay:10.37,2013-07-22 17:20:00,
2013-07-22 13:25:00,81.1,71.7,29.95,South,188,6.0,17.0,73,0.00,CLR,,0.00,WeatherDisplay:10.37,2013-07-22 17:25:00,
2013-07-22 13:35:00,82.4,72.0,29.95,SW,222,5.0,10.0,71,0.00,CLR,,0.00,WeatherDisplay:10.37,2013-07-22 17:35:00,
2013-07-22 13:40:00,82.6,71.8,29.95,SSW,206,6.0,14.0,70,0.00,CLR,,0.00,WeatherDisplay:10.37,2013-07-22 17:40:00,
2013-07-22 13:45:00,82.2,71.9,29.95,SSW,207,5.0,10.0,71,0.00,CLR,,0.00,WeatherDisplay:10.37,2013-07-22 17:45:00,
2013-07-22 13:50:00,82.1,71.8,29.95,SW,225,3.0,13.0,71,0.00,CLR,,0.00,WeatherDisplay:10.37,2013-07-22 17:50:00,
2013-07-22 13:55:00,81.9,71.5,29.94,SSW,208,5.0,13.0,71,0.00,CLR,,0.00,WeatherDisplay:10.37,2013-07-22 17:55:00,
2013-07-22 14:00:00,81.5,71.2,29.95,SSW,196,5.0,10.0,71,0.00,CLR,,0.00,WeatherDisplay:10.37,2013-07-22 18:00:00,
2013-07-22 14:05:00,81.1,71.3,29.95,SSW,211,5.0,7.0,72,0.00,CLR,,0.00,WeatherDisplay:10.37,2013-07-22 18:05:00,
2013-07-22 14:15:00,81.3,71.4,29.94,SW,223,2.0,7.0,72,0.00,CLR,,0.00,WeatherDisplay:10.37,2013-07-22 18:15:00,
2013-07-22 14:20:00,81.1,71.3,29.93,SW,223,6.0,10.0,72,0.00,CLR,,0.00,WeatherDisplay:10.37,2013-07-22 18:20:00,
2013-07-22 14:25:00,81.5,71.6,29.93,SSW,207,3.0,8.0,72,0.00,CLR,,0.00,WeatherDisplay:10.37,2013-07-22 18:25:00,
2013-07-22 14:30:00,81.7,71.4,29.92,SSW,208,6.0,16.0,71,0.00,CLR,,0.00,WeatherDisplay:10.37,2013-07-22 18:30:00,
2013-07-22 14:45:00,83.7,72.4,29.90,South,188,7.0,18.0,69,0.00,CLR,,0.00,WeatherDisplay:10.37,2013-07-22 18:45:00,
2013-07-22 14:50:00,83.9,72.2,29.90,SSW,192,8.0,13.0,68,0.00,CLR,,0.00,WeatherDisplay:10.37,2013-07-22 18:50:00,
2013-07-22 15:05:00,83.7,71.5,29.89,SSW,199,6.0,20.0,67,0.00,CLR,,0.00,WeatherDisplay:10.37,2013-07-22 19:05:00,
2013-07-22 15:10:00,82.8,70.7,29.89,SSE,168,7.0,23.0,67,0.00,CLR,,0.00,WeatherDisplay:10.37,2013-07-22 19:10:00,
2013-07-22 15:25:00,82.5,71.3,29.89,SW,227,5.0,10.0,69,0.00,CLR,,0.00,WeatherDisplay:10.37,2013-07-22 19:25:00,
2013-07-22 15:30:00,83.7,72.8,29.89,WSW,238,2.0,7.0,70,0.00,CLR,,0.00,WeatherDisplay:10.37,2013-07-22 19:30:00,
2013-07-22 15:35:00,84.3,72.6,29.89,West,261,1.0,7.0,68,0.00,CLR,,0.00,WeatherDisplay:10.37,2013-07-22 19:35:00,
2013-07-22 15:40:00,84.3,72.2,29.89,SW,221,2.0,7.0,67,0.00,CLR,,0.00,WeatherDisplay:10.37,2013-07-22 19:40:00,
2013-07-22 15:45:00,84.7,73.0,29.89,SSW,212,5.0,12.0,68,0.00,CLR,,0.00,WeatherDisplay:10.37,2013-07-22 19:45:00,
2013-07-22 15:55:00,84.4,71.8,29.88,SW,216,6.0,14.0,66,0.00,CLR,,0.00,WeatherDisplay:10.37,2013-07-22 19:55:00,
2013-07-22 16:00:00,84.2,72.0,29.89,WSW,243,6.0,14.0,67,0.00,CLR,,0.00,WeatherDisplay:10.37,2013-07-22 20:00:00,
2013-07-22 16:05:00,84.0,72.8,29.88,SW,232,3.0,7.0,69,0.00,CLR,,0.00,WeatherDisplay:10.37,2013-07-22 20:05:00,
2013-07-22 16:15:00,83.1,71.5,29.88,SSW,200,3.0,16.0,68,0.00,CLR,,0.00,WeatherDisplay:10.37,2013-07-22 20:15:00,
2013-07-22 16:20:00,83.8,72.6,29.88,SSW,197,3.0,17.0,69,0.00,CLR,,0.00,WeatherDisplay:10.37,2013-07-22 20:20:00,
2013-07-22 16:25:00,84.9,73.2,29.88,SSW,211,1.0,13.0,68,0.00,CLR,,0.00,WeatherDisplay:10.37,2013-07-22 20:25:00,
2013-07-22 16:30:00,85.4,72.8,29.88,SW,236,6.0,14.0,66,0.00,CLR,,0.00,WeatherDisplay:10.37,2013-07-22 20:30:00,
2013-07-22 16:35:00,84.6,71.5,29.88,SSW,212,6.0,12.0,65,0.00,CLR,,0.00,WeatherDisplay:10.37,2013-07-22 20:35:00,
2013-07-22 16:40:00,83.6,71.0,29.88,SSW,208,6.0,13.0,66,0.00,CLR,,0.00,WeatherDisplay:10.37,2013-07-22 20:40:00,
2013-07-22 16:45:00,83.3,71.2,29.88,WSW,240,2.0,10.0,67,0.00,CLR,,0.00,WeatherDisplay:10.37,2013-07-22 20:45:00,
2013-07-22 16:50:00,83.6,71.9,29.88,WNW,291,0.0,12.0,68,0.00,CLR,,0.00,WeatherDisplay:10.37,2013-07-22 20:50:00,
2013-07-22 16:55:00,84.8,72.6,29.88,SW,233,2.0,7.0,67,0.00,CLR,,0.00,WeatherDisplay:10.37,2013-07-22 20:55:00,
2013-07-22 17:00:00,85.8,72.6,29.88,SW,225,3.0,8.0,65,0.00,CLR,,0.00,WeatherDisplay:10.37,2013-07-22 21:00:00,
2013-07-22 17:05:00,86.0,72.4,29.88,SW,227,6.0,14.0,64,0.00,CLR,,0.00,WeatherDisplay:10.37,2013-07-22 21:05:00,
2013-07-22 17:10:00,85.8,72.7,29.88,SW,222,0.0,14.0,65,0.00,CLR,,0.00,WeatherDisplay:10.37,2013-07-22 21:10:00,
2013-07-22 17:15:00,85.6,72.5,29.88,West,270,1.0,6.0,65,0.00,CLR,,0.00,WeatherDisplay:10.37,2013-07-22 21:15:00,
2013-07-22 17:20:00,85.1,72.0,29.88,West,277,0.0,6.0,65,0.00,CLR,,0.00,WeatherDisplay:10.37,2013-07-22 21:20:00,
2013-07-22 17:25:00,84.2,71.2,29.87,NW,308,0.0,7.0,65,0.00,CLR,,0.00,WeatherDisplay:10.37,2013-07-22 21:25:00,
2013-07-22 17:30:00,83.8,71.7,29.88,WNW,295,1.0,6.0,67,0.00,CLR,,0.00,WeatherDisplay:10.37,2013-07-22 21:30:00,
2013-07-22 17:35:00,83.5,71.4,29.88,West,263,0.0,6.0,67,0.00,CLR,,0.00,WeatherDisplay:10.37,2013-07-22 21:35:00,
2013-07-22 17:40:00,83.4,70.9,29.87,West,281,0.0,6.0,66,0.00,CLR,,0.00,WeatherDisplay:10.37,2013-07-22 21:40:00,
2013-07-22 17:45:00,83.3,71.2,29.87,WNW,291,0.0,7.0,67,0.00,CLR,,0.00,WeatherDisplay:10.37,2013-07-22 21:45:00,
2013-07-22 17:50:00,83.2,71.1,29.87,NW,311,1.0,5.0,67,0.00,CLR,,0.00,WeatherDisplay:10.37,2013-07-22 21:50:00,
2013-07-22 17:55:00,82.8,69.8,29.87,NW,319,0.0,5.0,65,0.00,CLR,,0.00,WeatherDisplay:10.37,2013-07-22 21:55:00,
2013-07-22 18:00:00,82.6,69.2,29.87,SW,235,2.0,6.0,64,0.00,CLR,,0.00,WeatherDisplay:10.37,2013-07-22 22:00:00,
2013-07-22 18:05:00,82.2,68.8,29.87,WSW,243,0.0,6.0,64,0.00,CLR,,0.00,WeatherDisplay:10.37,2013-07-22 22:05:00,
2013-07-22 18:10:00,81.9,68.5,29.87,West,273,1.0,4.0,64,0.00,CLR,,0.00,WeatherDisplay:10.37,2013-07-22 22:10:00,
2013-07-22 18:20:00,81.3,68.4,29.87,WNW,286,1.0,5.0,65,0.00,CLR,,0.00,WeatherDisplay:10.37,2013-07-22 22:20:00,
2013-07-22 18:25:00,81.0,68.2,29.87,West,270,0.0,0.0,65,0.00,CLR,,0.00,WeatherDisplay:10.37,2013-07-22 22:25:00,
2013-07-22 18:30:00,80.9,68.0,29.88,WNW,292,0.0,0.0,65,0.00,CLR,,0.00,WeatherDisplay:10.37,2013-07-22 22:30:00,
2013-07-22 18:35:00,80.8,68.4,29.88,WNW,295,0.0,0.0,66,0.00,CLR,,0.00,WeatherDisplay:10.37,2013-07-22 22:35:00,
2013-07-22 18:40:00,80.8,68.4,29.87,WNW,284,0.0,0.0,66,0.00,CLR,,0.00,WeatherDisplay:10.37,2013-07-22 22:40:00,
2013-07-22 18:45:00,80.6,68.2,29.87,West,272,0.0,0.0,66,0.00,CLR,,0.00,WeatherDisplay:10.37,2013-07-22 22:45:00,
2013-07-22 18:50:00,80.4,68.5,29.87,SW,235,0.0,3.0,67,0.00,CLR,,0.00,WeatherDisplay:10.37,2013-07-22 22:50:00,
2013-07-22 18:55:00,80.1,68.6,29.88,West,261,0.0,5.0,68,0.00,CLR,,0.00,WeatherDisplay:10.37,2013-07-22 22:55:00,
2013-07-22 19:00:00,79.9,69.2,29.88,NW,314,0.0,0.0,70,0.00,CLR,,0.00,WeatherDisplay:10.37,2013-07-22 23:00:00,
2013-07-22 19:05:00,79.5,69.3,29.88,NW,315,0.0,0.0,71,0.00,CLR,,0.00,WeatherDisplay:10.37,2013-07-22 23:05:00,
2013-07-22 19:10:00,79.3,69.5,29.89,NW,315,0.0,0.0,72,0.00,CLR,,0.00,WeatherDisplay:10.37,2013-07-22 23:10:00,
2013-07-22 19:15:00,79.1,69.3,29.89,NW,315,0.0,0.0,72,0.00,CLR,,0.00,WeatherDisplay:10.37,2013-07-22 23:15:00,
2013-07-22 19:20:00,79.0,69.2,29.89,NW,315,0.0,0.0,72,0.00,CLR,,0.00,WeatherDisplay:10.37,2013-07-22 23:20:00,
2013-07-22 19:25:00,78.8,69.0,29.89,NW,315,0.0,0.0,72,0.00,CLR,,0.00,WeatherDisplay:10.37,2013-07-22 23:25:00,
2013-07-22 19:30:00,78.6,69.6,29.90,NW,315,0.0,0.0,74,0.00,CLR,,0.00,WeatherDisplay:10.37,2013-07-22 23:30:00,
2013-07-22 19:35:00,78.4,69.5,29.90,NW,315,0.0,0.0,74,0.00,CLR,,0.00,WeatherDisplay:10.37,2013-07-22 23:35:00,
2013-07-22 19:40:00,78.4,69.5,29.90,NW,315,0.0,0.0,74,0.00,CLR,,0.00,WeatherDisplay:10.37,2013-07-22 23:40:00,
2013-07-22 19:45:00,78.3,69.7,29.90,NW,315,0.0,0.0,75,0.00,CLR,,0.00,WeatherDisplay:10.37,2013-07-22 23:45:00,
2013-07-22 19:50:00,78.1,69.5,29.91,NW,315,0.0,0.0,75,0.00,CLR,,0.00,WeatherDisplay:10.37,2013-07-22 23:50:00,
2013-07-22 20:00:00,77.7,69.2,29.92,WNW,283,0.0,0.0,75,0.00,CLR,,0.00,WeatherDisplay:10.37,2013-07-23 00:00:00,
2013-07-22 20:05:00,77.5,69.0,29.91,WNW,282,0.0,0.0,75,0.00,CLR,,0.00,WeatherDisplay:10.37,2013-07-23 00:05:00,
2013-07-22 20:10:00,77.5,69.4,29.92,West,276,0.0,0.0,76,0.00,CLR,,0.00,WeatherDisplay:10.37,2013-07-23 00:10:00,
2013-07-22 20:15:00,77.4,69.2,29.92,West,270,0.0,3.0,76,0.00,CLR,,0.00,WeatherDisplay:10.37,2013-07-23 00:15:00,
2013-07-22 20:20:00,77.4,69.2,29.92,West,270,0.0,0.0,76,0.00,CLR,,0.00,WeatherDisplay:10.37,2013-07-23 00:20:00,
2013-07-22 20:25:00,77.4,69.2,29.93,West,270,0.0,0.0,76,0.00,CLR,,0.00,WeatherDisplay:10.37,2013-07-23 00:25:00,
2013-07-22 20:30:00,77.2,69.0,29.93,West,270,0.0,0.0,76,0.00,CLR,,0.00,WeatherDisplay:10.37,2013-07-23 00:30:00,
2013-07-22 20:35:00,77.1,69.3,29.93,West,270,0.0,0.0,77,0.00,CLR,,0.00,WeatherDisplay:10.37,2013-07-23 00:35:00,
2013-07-22 20:40:00,77.0,68.9,29.93,West,270,0.0,0.0,76,0.00,CLR,,0.00,WeatherDisplay:10.37,2013-07-23 00:40:00,
2013-07-22 20:50:00,76.8,69.4,29.93,West,270,0.0,0.0,78,0.00,CLR,,0.00,WeatherDisplay:10.37,2013-07-23 00:50:00,
2013-07-22 20:55:00,76.6,69.2,29.93,West,277,0.0,0.0,78,0.00,CLR,,0.00,WeatherDisplay:10.37,2013-07-23 00:55:00,
2013-07-22 21:00:00,76.3,68.9,29.94,WNW,294,0.0,0.0,78,0.00,CLR,,0.00,WeatherDisplay:10.37,2013-07-23 01:00:00,
2013-07-22 21:05:00,76.1,68.7,29.94,NW,310,0.0,0.0,78,0.00,CLR,,0.00,WeatherDisplay:10.37,2013-07-23 01:05:00,
2013-07-22 21:10:00,76.1,68.7,29.94,WNW,289,0.0,0.0,78,0.00,CLR,,0.00,WeatherDisplay:10.37,2013-07-23 01:10:00,
2013-07-22 21:15:00,76.1,68.7,29.94,SW,222,0.0,6.0,78,0.00,CLR,,0.00,WeatherDisplay:10.37,2013-07-23 01:15:00,
2013-07-22 21:20:00,76.1,68.4,29.94,WSW,255,0.0,0.0,77,0.00,CLR,,0.00,WeatherDisplay:10.37,2013-07-23 01:20:00,
2013-07-22 21:25:00,76.1,68.4,29.93,WNW,297,0.0,0.0,77,0.00,CLR,,0.00,WeatherDisplay:10.37,2013-07-23 01:25:00,
2013-07-22 21:30:00,75.9,68.2,29.94,NW,310,0.0,0.0,77,0.00,CLR,,0.00,WeatherDisplay:10.37,2013-07-23 01:30:00,
2013-07-22 21:35:00,75.7,68.0,29.93,NW,315,0.0,0.0,77,0.00,CLR,,0.00,WeatherDisplay:10.37,2013-07-23 01:35:00,
2013-07-22 21:40:00,75.6,67.8,29.93,NW,311,0.0,0.0,77,0.00,CLR,,0.00,WeatherDisplay:10.37,2013-07-23 01:40:00,
2013-07-22 21:45:00,75.3,67.9,29.93,WSW,257,0.0,0.0,78,0.00,CLR,,0.00,WeatherDisplay:10.37,2013-07-23 01:45:00,
2013-07-22 21:50:00,75.0,68.1,29.93,SW,228,0.0,0.0,79,0.00,CLR,,0.00,WeatherDisplay:10.37,2013-07-23 01:50:00,
2013-07-22 22:00:00,74.3,68.1,29.93,West,266,0.0,0.0,81,0.00,CLR,,0.00,WeatherDisplay:10.37,2013-07-23 02:00:00,
2013-07-22 22:05:00,73.9,68.1,29.93,West,263,0.0,0.0,82,0.00,CLR,,0.00,WeatherDisplay:10.37,2013-07-23 02:05:00,
2013-07-22 22:10:00,73.8,67.9,29.93,West,270,0.0,0.0,82,0.00,CLR,,0.00,WeatherDisplay:10.37,2013-07-23 02:10:00,
2013-07-22 22:15:00,73.6,68.1,29.93,WNW,292,0.0,0.0,83,0.00,CLR,,0.00,WeatherDisplay:10.37,2013-07-23 02:15:00,
2013-07-22 22:20:00,73.6,68.4,29.93,NNW,344,0.0,0.0,84,0.00,CLR,,0.00,WeatherDisplay:10.37,2013-07-23 02:20:00,
2013-07-22 22:25:00,73.4,68.3,29.93,NNE,12,0.0,0.0,84,0.00,CLR,,0.00,WeatherDisplay:10.37,2013-07-23 02:25:00,
2013-07-22 22:30:00,73.4,68.6,29.93,East,79,0.0,0.0,85,0.00,CLR,,0.00,WeatherDisplay:10.37,2013-07-23 02:30:00,
2013-07-22 22:35:00,73.0,67.9,29.93,East,90,0.0,0.0,84,0.00,CLR,,0.00,WeatherDisplay:10.37,2013-07-23 02:35:00,
2013-07-22 22:40:00,72.9,67.7,29.93,East,90,0.0,0.0,84,0.00,CLR,,0.00,WeatherDisplay:10.37,2013-07-23 02:40:00,
2013-07-22 22:45:00,72.5,67.4,29.93,East,90,0.0,0.0,84,0.00,CLR,,0.00,WeatherDisplay:10.37,2013-07-23 02:45:00,
2013-07-22 22:50:00,72.3,67.2,29.93,West,270,0.0,0.0,84,0.00,CLR,,0.00,WeatherDisplay:10.37,2013-07-23 02:50:00,
2013-07-22 22:55:00,72.1,67.4,29.93,West,270,0.0,0.0,85,0.00,CLR,,0.00,WeatherDisplay:10.37,2013-07-23 02:55:00,
2013-07-22 23:00:00,72.0,67.2,29.93,West,280,0.0,0.0,85,0.00,CLR,,0.00,WeatherDisplay:10.37,2013-07-23 03:00:00,
2013-07-22 23:15:00,71.6,66.8,29.93,West,270,0.0,0.0,85,0.00,CLR,,0.00,WeatherDisplay:10.37,2013-07-23 03:15:00,
2013-07-22 23:20:00,71.4,67.3,29.94,West,270,0.0,0.0,87,0.00,CLR,,0.00,WeatherDisplay:10.37,2013-07-23 03:20:00,
2013-07-22 23:25:00,71.4,67.3,29.94,West,270,0.0,0.0,87,0.00,CLR,,0.00,WeatherDisplay:10.37,2013-07-23 03:25:00,
2013-07-22 23:30:00,71.2,67.2,29.94,West,270,0.0,0.0,87,0.00,CLR,,0.00,WeatherDisplay:10.37,2013-07-23 03:30:00,
2013-07-22 23:35:00,71.2,67.5,29.94,WNW,290,0.0,0.0,88,0.00,CLR,,0.00,WeatherDisplay:10.37,2013-07-23 03:35:00,
2013-07-22 23:40:00,71.1,67.3,29.93,WNW,287,0.0,0.0,88,0.00,CLR,,0.00,WeatherDisplay:10.37,2013-07-23 03:40:00,
2013-07-22 23:45:00,71.1,67.3,29.94,WNW,290,0.0,0.0,88,0.00,CLR,,0.00,WeatherDisplay:10.37,2013-07-23 03:45:00,
2013-07-22 23:50:00,71.1,67.3,29.94,NW,314,0.0,0.0,88,0.00,CLR,,0.00,WeatherDisplay:10.37,2013-07-23 03:50:00,
2013-07-22 23:55:00,70.9,67.5,29.94,NW,304,0.0,0.0,89,0.00,CLR,,0.00,WeatherDisplay:10.37,2013-07-23 03:55:00,